Погода в Орносе

Греция     37°25′31″N   25°19′22″E
темп.,
°C
ветер,
м/с
пор.,
м/с
влажн.,
%
обл.,
%
осадки,
мм/ч
давл.,
гПа
погр.,
м
19 апреля, пн
пн1900:00+17ю6978100 0.1 1014188
03:00+17юз4585100 0.1 101271
06:00+16юз71290100 0.4 1012407
09:00+15юз4788100 0.9 1012355
12:00+15зюз61084100 1.2 1014943
15:00+14юз8974100 3.3 1013599
18:00+15юз10116299 0.1 1012553
21:00+16зюз811750 0.1 1012262
20 апреля, вт
вт2000:00+15з710720 0.0 1012378
03:00+15з812680 0.0 1012835
06:00+14зюз810680 0.0 1012718
09:00+15з68620 0.0 1014720
12:00+15з66590 0.0 1015692
15:00+16з44583 0.0 1015591
18:00+16зюз12572 0.0 1015455
21:00+15юз44685 0.0 1016331
21 апреля, ср
ср2100:00+15ююз34735 0.0 1017162
03:00+15ююз23781 0.0 1017177
06:00+14ю22750 0.0 1017152
09:00+15юз117099 0.0 1018229
12:00+16зюз236690 0.0 1019583
15:00+17зсз33560 0.0 1019533
18:00+16зсз11530 0.0 1019447
21:00+15зюз336453 0.0 1020125
22 апреля, чт
чт2200:00+15з336922 0.0 1020170
03:00+15зсз22682 0.0 1020114
06:00+14с11654 0.0 102054
09:00+15св22610 0.0 1021145
12:00+16всв225655 0.0 1022382
15:00+17ююз11534 0.0 1022437
18:00+17ююз114867 0.0 1021343
21:00+17ююз116098 0.0 102113
23 апреля, пт
пт2300:00+16зюз22585 0.0 102020
03:00+16зюз446211 0.0 101986
06:00+16зсз11645 0.0 101811
09:00+16всв1257100 0.0 101958
12:00+17юв225381 0.0 1019178
15:00+18юв3351100 0.0 1018205
18:00+18юв445393 0.0 1016169
21:00+17юв3460100 0.0 101654